02:03
Airports
History
Links
Donate
Help keep this website running!
PayPal
Bitcoin
This page is community maintained. The information is intended for PC simulator navigation or reference.
Always use approved charts for navigation.
83NE
Abbott
Abbott (83NE)
Long Pine, Nebraska, United States (69217)
4
Lat/Lng:42° 19' 30" N / 99° 45' 21.45" W
42.324999 / -99.755958
Elevation:2560'ft / 780mMSL
ID / ICAO:83NE
Runways:1
Longest:14-32
Grass 917m / 3,010ft
Nearby Weather01:55 GMT 2018-02-19
Nearby weather at KANW, Ainsworth Rgnl located 21.3 nautical miles from 83NE
Altimeter: 29.74
Visibility: 10.0 statute miles
Wind: 21 knots (from 350°)
Temp: -7°c / 19°f
Humidity: 92.5%

METAR: KANW 190155Z AUTO 35021G30KT 10SM OVC006 M07/M08 A2974 RMK AO2 T10701076

(Powered by phpweather)
Nearby VORs <50NM
Nearby NDBs
Runway 14 / 32
Dimensions:917.3 x 45.7m 3010' x 150'ft
Surface:Grass
Runway 14 [A]Runway 32 [B]
Heading:148°TH 328°TH
Lat:
Lng:
42° 19' 42.69"N
99° 45' 31.77"W
42° 19' 17.3"N
99° 45' 11.13"W
User Notes and Comments
42° 19' 30" N / 99° 45' 21.45" W
Distance To
Airport ID:
Nearby Airports
(U) Rock County 19.5 NM
KRBE NNE 29°
(U) Ainsworth Rgnl 21.3 NM
KANW ( WX ) NW 325°
4 W Meeks Ranch 27.6 NM
63V SE 146°
(R) Higgins Bros 33.8 NM
1NE0 W 269°
4 Springview Municipal 34.8 NM
9V1 N
(R) Mc Millan Ranch 39.4 NM
4NE1 S 179°
(U) Stuart-atkinson Muni 40.1 NM
8V2 ENE 65°
VFR Chart
Flight Planning at SkyVector.com